Preview of NWS' New Version of Forecast
This preview is not operational and should not be used for support decisions.

Regional Weather Roundup (RWR)

Issued by National Weather Service (NWS)

                            
000
ASUS43 KDMX 160101
RWRIA 

WEATHER ROUNDUP FOR IOWA
NATIONAL WEATHER SERVICE DES MOINES IA
800 PM CDT MON JUL 15 2019

NOTE: "FAIR" INDICATES FEW OR NO CLOUDS BELOW 12,000 FEET WITH NO
SIGNIFICANT WEATHER AND/OR OBSTRUCTIONS TO VISIBILITY.

* - THESE STATIONS ARE NOT NWS STATIONS...THUS NOT UNDER NWS
QUALITY CONTROL.  THEY ALSO DO NOT REPORT WEATHER SUCH 
AS PRECIPITATION OR FOG.  

IAZ001>003-012>014-020>022-031>034-043>046-160200-
   NORTHWEST IOWA
  
CITY           SKY/WX    TMP DP  RH WIND       PRES   REMARKS
CARROLL *      CLEAR     84  70  61 S7        29.88S HX  88           
CHEROKEE *     CLEAR     82  74  77 S10       29.85F HX  87           
DENISON *      CLEAR     82  72  69 S8        29.90S HX  87           
LE MARS *      PTCLDY    86  77  74 S7        29.84R HX  97           
SHELDON *      CLEAR     84  82  94 S10       29.82S HX 101           
SIOUX CITY     PTCLDY    85  75  72 S9        29.84R HX  93           
SPENCER        PTCLDY    86  74  67 S14G24    29.84S HX  94           
STORM LAKE *   CLEAR     81  70  69 S12       29.85S HX  84           
$$
 
IAZ055>058-069>071-079>083-090>094-160200-
   SOUTHWEST IOWA
  
CITY           SKY/WX    TMP DP  RH WIND       PRES   REMARKS
ATLANTIC *     CLEAR     82  70  65 S6        29.89R HX  86           
AUDUBON *      PTCLDY    82  70  65 S6        29.92R HX  86           
CLARINDA *     CLEAR     84  68  58 S5        29.92R HX  87           
COUNCIL BLFS * CLEAR     84  72  65 S6        29.88R HX  89           
CRESTON *      CLEAR     81  68  65 SE7       29.92R HX  83           
HARLAN  *      CLEAR     82  72  69 SW6       29.90R HX  87           
LAMONI         CLEAR     81  67  62 SE5       29.91S HX  83           
RED OAK *      CLEAR     84  68  58 S7        29.90R HX  87           
SHENANDOAH *   CLEAR     84  70  61 S7G14     29.88R HX  88           
$$
 
IAZ047>049-059>061-072>074-084-160200-
   CENTRAL IOWA
  
CITY           SKY/WX    TMP DP  RH WIND       PRES   REMARKS
AMES           CLEAR     82  69  64 S10       29.88S HX  85           
ANKENY *       PTCLDY    82  68  61 VRB7G14   29.90S HX  85           
BOONE *        CLEAR     82  72  69 S8G14     29.88S HX  87           
CHARITON *     CLEAR     81  68  65 SE10      29.91S HX  83           
DES MOINES     PTCLDY    83  66  56 S10       29.89R HX  85           
GRINNELL*      PTCLDY    82  68  63 S7        29.93R HX  84           
KNOXVILLE *    CLEAR     81  68  65 S7        29.91R HX  83           
MARSHALLTOWN   CLEAR     81  69  67 S9        29.89F HX  84           
NEWTON *       CLEAR     81  68  65 S7        29.90R HX  83           
PELLA *          N/A     82  66  58 S7        29.92R HX  84           
$$
 
IAZ004>006-015-016-023>025-035-036-160200-
   NORTH CENTRAL IOWA
  
CITY           SKY/WX    TMP DP  RH WIND       PRES   REMARKS
ALGONA *       CLEAR     82  70  65 SW13      29.85S HX  86           
CLARION *      CLEAR     82  70  65 S12       29.88S HX  86           
ESTHERVILLE    CLEAR     83  73  72 S13G23    29.83S HX  89           
FORT DODGE *   CLEAR     84  70  62 S9        29.89R HX  88           
MASON CITY     CLEAR     82  69  64 S10       29.88S HX  85           
FOREST CITY *  FAIR      82  70  65 S14       29.86S HX  86           
IOWA FALLS *   FAIR      83  70  63 S10       29.90S HX  87           
$$

IAZ007>011-017>019-026>030-037>042-050>054-066-160200-
   NORTHEAST IOWA
  
CITY           SKY/WX    TMP DP  RH WIND       PRES   REMARKS
CEDAR RAPIDS   FAIR      80  66  62 S9        29.91S HX  82           
CHARLES CITY * FAIR      81  70  69 S9        29.89S HX  84           
CLINTON *      FAIR      79  67  66 S16       29.96S HX  81           
DECORAH *      FAIR      81  70  69 S7G14     29.88S HX  84           
DUBUQUE        FAIR      79  68  69 S15       29.94R HX  81           
MONTICELLO *   FAIR      81  68  65 S14G20    29.92R HX  83           
OELWEIN *      CLEAR     81  70  69 S10G17    29.91S HX  84           
WATERLOO       FAIR      84  67  56 S13       29.88S HX  86           
$$
 
IAZ064-065-067-068-078-160200-
   EAST CENTRAL IOWA
  
CITY           SKY/WX    TMP DP  RH WIND       PRES   REMARKS
DAVENPORT      FAIR      80  65  59 S14G22    29.96F HX  82           
IOWA CITY      FAIR      83  66  56 S10       29.93S HX  85           
MT. PLEASANT * CLEAR     79  68  69 S10       29.94F HX  81           
MUSCATINE *    FAIR      81  66  61 S14       29.93F HX  83           
QUAD CITIES    FAIR      79  66  64 S12       29.94F HX  81           
$$
 
IAZ062-063-075>077-085>089-095>099-160200-
   SOUTHEAST IOWA
  
CITY           SKY/WX    TMP DP  RH WIND       PRES   REMARKS
BURLINGTON     MOCLDY    78  66  66 SE7       29.95F HX  80           
FAIRFIELD *    CLEAR     81  64  57 SE15      29.92F HX  82           
FORT MADISON * CLOUDY    77  66  69 SE5       29.96S                  
KEOKUK *       CLOUDY    75  68  78 SE8       29.94F                  
OSKALOOSA *      N/A     80  64  57 S12       29.92R HX  81           
OTTUMWA        CLEAR     79  66  64 SE12      29.92R HX  81           
WASHINGTON *   CLEAR     79  68  69 S10G16    29.92S HX  81           
$$

ABBREVIATIONS USED IN REMARKS
   TC - TEMPERATURES IN CELSIUS
  WCI - WIND CHILL INDEX
   HX - HEAT INDEX
  VSB - VISIBILITY  
$$